EW2309 Weather Reports


Display with metric or nautical units.
time (UTC)temp
F
wind
direction
speed
MPH
gust
MPH
rain 1hr
in
rain 24hr
in
rain mn
in
humidity
%
barometer
mb
20260904044534 78 260 0.0 0.0 0.00 0.00 0.00 78 1014.6
20260904043033 78 260 0.0 0.0 0.00 0.00 0.00 78 1014.7
20260904041520 78 260 0.0 0.0 0.00 0.00 0.00 78 1014.8
20260904040034 79 260 0.0 0.0 0.00 0.00 0.00 77 1014.8
20260904034557 79 260 0.0 0.0 0.00 0.00 0.00 77 1014.9
20260904033057 79 260 0.0 0.0 0.00 0.00 0.00 77 1015.0
20260904031543 80 260 0.0 0.0 0.00 0.00 0.00 76 1015.0
20260904030042 80 260 0.0 0.0 0.00 0.00 0.00 76 1015.1
20260904024542 80 260 0.0 0.0 0.00 0.00 0.00 75 1015.2
20260904023043 80 260 0.0 0.0 0.00 0.00 0.00 76 1015.0
20260904021550 80 260 0.0 0.0 0.00 0.00 0.00 76 1014.9
20260904020042 80 260 0.0 0.0 0.00 0.00 0.00 75 1014.7
20260904014541 80 260 0.0 0.0 0.00 0.00 0.00 74 1014.6
20260904013103 81 260 0.0 0.0 0.00 0.00 0.00 75 1014.4
20260904011521 81 260 0.0 0.0 0.00 0.00 0.00 73 1014.3
20260904010021 82 260 0.0 0.0 0.00 0.00 0.00 72 1014.2
20260904004503 82 260 0.0 0.0 0.00 0.00 0.00 72 1013.8
20260904003005 83 260 0.0 0.0 0.00 0.00 0.00 71 1013.7
20260904001600 84 260 0.0 0.0 0.00 0.00 0.00 70 1013.6
20260904000044 86 260 0.0 0.0 0.00 0.00 0.00 67 1013.4
20260903234526 87 260 0.0 0.0 0.00 0.00 0.00 65 1013.2
20260903233036 87 260 0.0 0.0 0.00 0.00 0.00 63 1013.2
20260903231507 88 260 0.0 0.0 0.00 0.00 0.00 62 1013.1
20260903230007 89 260 0.0 0.0 0.00 0.00 0.00 61 1013.2
20260903224551 90 260 0.0 2.0 0.00 0.00 0.00 61 1013.2
20260903223050 91 260 0.0 1.0 0.00 0.00 0.00 60 1013.4
20260903221532 91 253 0.0 2.0 0.00 0.00 0.00 59 1013.3
20260903220031 92 251 0.0 3.0 0.00 0.00 0.00 56 1013.2
20260903214513 93 264 1.0 3.0 0.00 0.00 0.00 53 1013.2
20260903213013 93 272 1.0 4.0 0.00 0.00 0.00 51 1013.0
20260903211554 94 5 1.0 5.0 0.00 0.00 0.00 52 1013.2
20260903210057 96 330 0.0 3.0 0.00 0.00 0.00 49 1013.3
20260903204540 97 28 1.0 3.0 0.00 0.00 0.00 46 1013.4
20260903203033 97 275 0.0 3.0 0.00 0.00 0.00 50 1013.6
20260903201515 96 332 0.0 2.0 0.00 0.00 0.00 48 1013.6
20260903200012 97 259 1.0 4.0 0.00 0.00 0.00 48 1014.0
20260903194553 96 218 1.0 4.0 0.00 0.00 0.00 47 1014.1
20260903193051 97 124 1.0 3.0 0.00 0.00 0.00 50 1014.0
20260903191538 96 80 0.0 3.0 0.00 0.00 0.00 50 1014.3
20260903190027 96 79 0.0 3.0 0.00 0.00 0.00 51 1014.5
20260903184507 94 194 0.0 3.0 0.00 0.00 0.00 53 1014.6
20260903183009 95 108 1.0 3.0 0.00 0.00 0.00 55 1014.9
20260903181559 94 139 1.0 3.0 0.00 0.00 0.00 59 1015.1
20260903180038 92 142 1.0 2.0 0.00 0.00 0.00 60 1015.3
20260903174536 90 144 0.0 2.0 0.00 0.00 0.00 63 1015.5
20260903173015 90 65 0.0 2.0 0.00 0.00 0.00 65 1015.7
20260903171514 91 65 0.0 2.0 0.00 0.00 0.00 64 1015.9
20260903170058 91 65 0.0 2.0 0.00 0.00 0.00 65 1016.2
20260903164553 91 65 1.0 3.0 0.00 0.00 0.00 62 1016.3
20260903163035 91 262 1.0 3.0 0.00 0.00 0.00 60 1016.4
20260903161531 90 309 0.0 2.0 0.00 0.00 0.00 63 1016.4
20260903160009 88 301 0.0 2.0 0.00 0.00 0.00 66 1016.5
20260903154504 86 298 0.0 2.0 0.00 0.00 0.00 70 1016.6
20260903153043 85 296 0.0 1.0 0.00 0.00 0.00 73 1016.6
20260903151542 84 303 1.0 3.0 0.00 0.00 0.00 74 1016.6
20260903150020 83 27 0.0 3.0 0.00 0.00 0.00 77 1016.6
20260903144518 81 183 0.0 1.0 0.00 0.00 0.00 82 1016.5
20260903143102 80 184 0.0 0.0 0.00 0.00 0.00 82 1016.6
20260903141556 79 184 0.0 0.0 0.00 0.00 0.00 84 1016.6
20260903140055 78 184 0.0 0.0 0.00 0.00 0.00 85 1016.6
20260903134609 77 184 0.0 0.0 0.00 0.00 0.00 85 1016.6
20260903133051 76 184 0.0 0.0 0.00 0.00 0.00 89 1016.6
20260903131543 74 184 0.0 0.0 0.00 0.00 0.00 91 1016.6
20260903130038 73 184 0.0 0.0 0.00 0.00 0.00 91 1016.6
20260903124534 73 184 0.0 0.0 0.00 0.00 0.00 93 1016.6
20260903123020 73 185 0.0 0.0 0.00 0.00 0.00 92 1016.7
20260903121526 72 185 0.0 0.0 0.00 0.00 0.00 91 1016.7
20260903120021 72 185 0.0 0.0 0.00 0.00 0.00 91 1016.6
20260903114516 72 186 0.0 0.0 0.00 0.00 0.00 91 1016.4
20260903113014 72 186 0.0 0.0 0.00 0.00 0.00 90 1016.2
20260903111511 72 186 0.0 0.0 0.00 0.00 0.00 89 1016.1
20260903110009 73 185 0.0 0.0 0.00 0.00 0.00 89 1015.9
20260903104508 73 185 0.0 0.0 0.00 0.00 0.00 88 1015.7
20260903103049 73 185 0.0 0.0 0.00 0.00 0.00 88 1015.9
20260903101549 73 185 0.0 0.0 0.00 0.00 0.00 88 1015.8
20260903100028 73 184 0.0 0.0 0.00 0.00 0.00 88 1015.7
20260903094528 73 184 0.0 0.0 0.00 0.00 0.00 87 1015.6
20260903093013 73 184 0.0 0.0 0.00 0.00 0.00 87 1015.6
20260903091516 73 184 0.0 0.0 0.00 0.00 0.00 87 1015.6
20260903090012 74 184 0.0 0.0 0.00 0.00 0.00 88 1015.6
20260903084511 74 184 0.0 0.0 0.00 0.00 0.00 88 1015.5
20260903083011 74 184 0.0 0.0 0.00 0.00 0.00 88 1015.5
20260903081511 74 184 0.0 0.0 0.00 0.00 0.00 87 1015.5
20260903080011 74 184 0.0 0.0 0.00 0.00 0.00 87 1015.6
20260903074514 74 184 0.0 0.0 0.00 0.00 0.00 87 1015.5
20260903073011 75 184 0.0 0.0 0.00 0.00 0.00 85 1015.5
20260903071509 75 184 0.0 0.0 0.00 0.00 0.00 85 1015.4
20260903070017 75 184 0.0 0.0 0.00 0.00 0.00 85 1015.4
20260903064514 75 184 0.0 0.0 0.00 0.00 0.00 83 1015.4
20260903063016 76 184 0.0 0.0 0.00 0.00 0.00 82 1015.5
20260903061514 76 184 0.0 0.0 0.00 0.00 0.00 83 1015.6
20260903060049 76 184 0.0 0.0 0.00 0.00 0.00 81 1015.8
20260903054549 76 184 0.0 0.0 0.00 0.00 0.00 81 1015.8
20260903053035 77 184 0.0 0.0 0.00 0.00 0.00 81 1015.8
20260903051532 77 184 0.0 0.0 0.00 0.00 0.00 81 1015.8
20260903050018 77 184 0.0 0.0 0.00 0.00 0.00 79 1015.8